| time (UTC) | temp F | wind direction | speed knots | gust knots | rain 1hr in | rain 24hr in | rain mn in | humidity % | barometer mb |
| 20260503213014 | 59 | 325 | 3.5 | 10.4 | 0.00 | 0.00 | 0.00 | 81 | 1016.2 |
| 20260503212358 | 59 | 336 | 6.1 | 12.2 | 0.00 | 0.00 | 0.00 | 82 | 1016.2 |
| 20260503202243 | 59 | 344 | 2.6 | 7.8 | 0.00 | 0.00 | 0.00 | 82 | 1015.6 |
| 20260503193412 | 60 | 333 | 5.2 | 8.7 | 0.00 | 0.00 | 0.00 | 79 | 1015.0 |
| 20260503192448 | 60 | 333 | 4.3 | 9.6 | 0.00 | 0.00 | 0.00 | 79 | 1015.0 |
| 20260503191427 | 61 | 341 | 7.0 | 10.4 | 0.00 | 0.00 | 0.00 | 79 | 1014.8 |
| 20260503190152 | 61 | 327 | 4.3 | 10.4 | 0.00 | 0.00 | 0.00 | 79 | 1014.7 |
| 20260503184506 | 61 | 321 | 5.2 | 13.0 | 0.00 | 0.00 | 0.00 | 79 | 1014.6 |
| 20260503184408 | 62 | 321 | 6.1 | 13.0 | 0.00 | 0.00 | 0.00 | 79 | 1020.1 |
| 20260503183359 | 62 | 328 | 7.0 | 12.2 | 0.00 | 0.00 | 0.00 | 80 | 1014.6 |
| 20260503182354 | 62 | 344 | 7.8 | 13.0 | 0.00 | 0.00 | 0.00 | 80 | 1014.6 |
| 20260503180427 | 62 | 321 | 4.3 | 9.6 | 0.00 | 0.00 | 0.00 | 84 | 1014.5 |
| 20260503180031 | 61 | 350 | 4.3 | 12.2 | 0.00 | 0.00 | 0.00 | 84 | 1014.5 |
| 20260503175411 | 62 | 341 | 7.0 | 12.2 | 0.00 | 0.00 | 0.00 | 82 | 1020.1 |
| 20260503172408 | 62 | 306 | 4.3 | 9.6 | 0.00 | 0.00 | 0.00 | 83 | 1014.7 |
| 20260503171426 | 63 | 324 | 5.2 | 11.3 | 0.00 | 0.00 | 0.00 | 81 | 1014.8 |
| 20260503140224 | 63 | 297 | 7.0 | 11.3 | 0.00 | 0.00 | 0.00 | 84 | 1015.1 |
| 20260503131419 | 63 | 290 | 7.0 | 11.3 | 0.00 | 0.00 | 0.00 | 84 | 1015.1 |
| 20260503072404 | 58 | 24 | 0.0 | 0.9 | 0.00 | 0.83 | 0.00 | 91 | 1014.8 |
| 20260503071423 | 57 | 24 | 0.0 | 0.0 | 0.00 | 0.83 | 0.00 | 91 | 1014.8 |
| 20260503070414 | 56 | 18 | 0.0 | 0.0 | 0.00 | 0.83 | 0.00 | 91 | 1014.8 |
| 20260503053356 | 56 | 322 | 0.0 | 0.0 | 0.00 | 0.98 | 0.00 | 90 | 1014.4 |
| 20260503052409 | 56 | 303 | 0.0 | 0.0 | 0.00 | 0.98 | 0.00 | 90 | 1014.3 |
| 20260503045431 | 57 | 303 | 0.0 | 1.7 | 0.00 | 1.02 | 0.00 | 90 | 1014.4 |
| 20260503035430 | 57 | 251 | 0.0 | 1.7 | 0.00 | 1.06 | 0.00 | 90 | 1014.3 |
| 20260503034409 | 57 | 250 | 0.9 | 1.7 | 0.00 | 1.06 | 0.00 | 90 | 1014.4 |
| 20260503032413 | 58 | 257 | 0.0 | 0.9 | 0.00 | 1.06 | 0.00 | 90 | 1014.5 |
| 20260503031413 | 58 | 259 | 0.0 | 1.7 | 0.00 | 1.06 | 0.00 | 90 | 1014.5 |
| 20260503025359 | 58 | 266 | 1.7 | 4.3 | 0.00 | 1.06 | 0.00 | 90 | 1014.6 |
| 20260503024356 | 58 | 255 | 2.6 | 4.3 | 0.00 | 1.06 | 0.00 | 90 | 1014.7 |
| 20260503022424 | 58 | 248 | 1.7 | 3.5 | 0.00 | 1.06 | 0.00 | 90 | 1014.7 |
| 20260503015356 | 59 | 254 | 1.7 | 5.2 | 0.00 | 1.06 | 0.00 | 91 | 1014.8 |
| 20260503014501 | 58 | 263 | 1.7 | 3.5 | 0.00 | 0.21 | 0.00 | 91 | 1014.9 |
| 20260503014433 | 59 | 260 | 1.7 | 4.3 | 0.00 | 1.06 | 0.00 | 91 | 1020.4 |
| 20260503013425 | 58 | 263 | 4.3 | 8.7 | 0.00 | 1.06 | 0.00 | 91 | 1015.0 |
| 20260503012418 | 58 | 271 | 2.6 | 4.3 | 0.00 | 1.06 | 0.00 | 91 | 1015.1 |
| 20260503011418 | 58 | 266 | 1.7 | 4.3 | 0.00 | 1.06 | 0.00 | 91 | 1015.2 |
| 20260503010017 | 58 | 265 | 0.9 | 4.3 | 0.00 | 0.21 | 0.00 | 91 | 1015.1 |
| 20260503005356 | 58 | 264 | 0.9 | 3.5 | 0.00 | 1.06 | 0.00 | 91 | 1015.3 |
| 20260503004531 | 57 | 243 | 0.9 | 3.5 | 0.00 | 0.21 | 0.00 | 91 | 1015.4 |
| 20260503003358 | 58 | 240 | 1.7 | 3.5 | 0.00 | 1.06 | 0.00 | 91 | 1015.5 |
| 20260503002412 | 58 | 254 | 1.7 | 4.3 | 0.00 | 1.06 | 0.00 | 91 | 1015.5 |
| 20260503001401 | 58 | 245 | 1.7 | 2.6 | 0.00 | 1.06 | 0.00 | 91 | 1015.6 |
| 20260502234532 | 58 | 245 | 0.9 | 3.5 | 0.00 | 0.21 | 0.00 | 91 | 1015.8 |
| 20260502234409 | 59 | 248 | 1.7 | 3.5 | 0.00 | 1.06 | 0.00 | 91 | 1021.3 |
| 20260502233407 | 59 | 238 | 1.7 | 3.5 | 0.00 | 1.06 | 0.00 | 91 | 1016.0 |
| 20260502233003 | 59 | 219 | 1.7 | 3.5 | 0.00 | 0.21 | 0.00 | 91 | 1015.9 |
| 20260502232409 | 59 | 228 | 1.7 | 4.3 | 0.00 | 1.06 | 0.00 | 91 | 1021.4 |
| 20260502225404 | 59 | 229 | 2.6 | 5.2 | 0.00 | 1.06 | 0.21 | 91 | 1016.1 |
| 20260502224405 | 59 | 225 | 2.6 | 5.2 | 0.00 | 1.06 | 0.21 | 91 | 1016.2 |
| 20260502223403 | 59 | 240 | 4.3 | 6.1 | 0.00 | 1.06 | 0.21 | 92 | 1016.2 |
| 20260502223009 | 59 | 232 | 3.5 | 6.1 | 0.00 | 0.21 | 0.21 | 92 | 1016.1 |
| 20260502222421 | 59 | 242 | 3.5 | 4.3 | 0.00 | 1.06 | 0.21 | 92 | 1016.2 |